www.pogodaiklimat.ru

Погода и климат >> Архив погоды >> ОАЭ >> Дубай


АРХИВ ПОГОДЫ в Дубае

Время (UTC), дата Ветер
(напр.,м/с)
 
Видим.   Явления Облачность Т
(С)
Тd
(С)
f
(%)
Тe
(С)
Тes
(С)
Комфортность P
(гПа)
Po
(гПа)
Тmin
(С)
Tmax
(С)
R
(мм)
R24
(мм)
S
(см)
12 8.09 СЗ 6 10 км 4/0
[Ci fib]
+37.2 +26.6 55 +54 +56 опасность
перегрева
997.5 997.0
15 8.09 СЗ 6 10 км 3/0
[Ci fib]
+34.9 +28.8 71 +58 +58 опасность
перегрева
998.6 998.1
00 9.09 ЮЗ 2 10 км 1/1 750 м
[Sc]
+33.8 +27.5 70 +53 +53 опасность
перегрева
999.7 999.2
06 9.09 СВ 3 10 км ясно +35.7 +25.2 55 +50 +62 опасность
перегрева
1001.8 1001.3 +31.6
09 9.09 СЗ 5 10 км ясно +37.7 +26.1 52 +53 +63 опасность
перегрева
999.7 999.2
12 9.09 С 6 10 км ясно +36.0 +27.0 60 +54 +56 опасность
перегрева
998.2 997.7
15 9.09 С 3 10 км ясно +34.7 +26.8 64 +52 +52 опасность
перегрева
998.9 998.4
18 9.09 С 3 10 км 3/0
[Ci fib]
+35.0 +25.1 57 +49 +49 опасность
перегрева
1000.3 999.8 +38.8
21 9.09 ЮЗ 3 10 км 3/0
[Ci fib]
+34.0 +24.8 59 +47 +47 опасность
перегрева
999.8 999.3
00 10.09 В 3 10 км 3/0
[Ci fib]
+32.8 +26.8 71 +50 +50 опасность
перегрева
999.4 998.8
03 10.09 В 3 8000 м мгла 4/0
[Ci fib]
+31.6 +27.2 78 +50 +51 опасность
перегрева
1000.8 1000.2
06 10.09 ЮВ 4 10 км 4/0
[Ci fib]
+36.2 +22.3 45 +45 +53 опасность
перегрева
1001.9 1001.4 +31.6
09 10.09 СЗ 6 10 км 4/0
[Ci fib]
+38.7 +25.3 47 +52 +59 опасность
перегрева
999.7 999.2
12 10.09 С 6 10 км ясно +37.3 +25.1 50 +51 +53 опасность
перегрева
998.3 997.8
15 10.09 СВ 4 10 км 4/0
[Ci fib]
+37.3 +21.8 41 +45 +45 опасность
перегрева
998.7 998.2
18 10.09 С 2 10 км ясно +36.1 +25.0 53 +50 +50 опасность
перегрева
1000.2 999.7 +41.8
21 10.09 С 3 10 км ясно +34.1 +27.8 70 +54 +54 опасность
перегрева
999.9 999.4
00 11.09 СВ 3 10 км ясно +33.2 +27.6 73 +53 +53 опасность
перегрева
1000.3 999.8
03 11.09 В 2 10 км ясно +31.4 +27.2 78 +49 +50 опасность
перегрева
1002.7 1002.1
06 11.09 ЮЗ 4 7000 м пыль ясно +36.1 +22.6 46 +45 +54 опасность
перегрева
1003.6 1003.1 +31.0
09 11.09 СЗ 5 7000 м пыль ясно +39.6 +25.1 44 +52 +63 опасность
перегрева
1002.0 1001.5
12 11.09 СЗ 7 10 км ясно +38.8 +27.1 52 +57 +58 опасность
перегрева
1000.5 1000.0
15 11.09 С 3 10 км ясно +36.2 +26.9 59 +54 +54 опасность
перегрева
1001.6 1001.1
18 11.09 С 3 10 км 3/0
[Ci fib]
+35.2 +27.3 64 +54 +54 опасность
перегрева
1003.1 1002.6 +41.2
21 11.09 С 4 10 км 1/0
[Ci fib]
+34.2 +28.3 71 +55 +55 опасность
перегрева
1001.9 1001.4
00 12.09 В 4 10 км 3/0
[Ci fib]
+33.5 +27.2 70 +52 +52 опасность
перегрева
1002.6 1002.0
03 12.09 Ю 3 10 км 1/0
[Ci fib]
+31.8 +26.7 74 +49 +49 опасность
перегрева
1003.8 1003.2
06 12.09 ЮЗ 4 8000 м пыль ясно +36.8 +20.9 40 +44 +53 опасность
перегрева
1004.7 1004.2 +31.6
09 12.09 СЗ 5 6000 м пыль ясно +38.7 +23.5 42 +49 +58 опасность
перегрева
1003.0 1002.5
12 12.09 С 7 10 км ясно +37.9 +26.6 53 +55 +57 опасность
перегрева
1001.5 1001.0
15 12.09 С 4 8000 м мгла 3/0
[Ci fib]
+34.8 +28.9 72 +58 +58 опасность
перегрева
1002.1 1001.6
18 12.09 СЗ 3 5000 м мгла ясно +33.9 +29.0 76 +58 +58 опасность
перегрева
1003.4 1002.8 +41.0
21 12.09 С 2 4000 м мгла ясно +33.0 +29.2 81 +58 +58 опасность
перегрева
1002.8 1002.2
00 13.09 В 2 5000 м мгла ясно +33.0 +29.2 81 +58 +58 опасность
перегрева
1002.4 1001.8
03 13.09 ЮЗ 2 2000 м мгла ясно +31.7 +28.7 84 +54 +55 опасность
перегрева
1004.1 1003.5
06 13.09 Ю 3 5000 м мгла ясно +34.7 +26.8 64 +52 +64 опасность
перегрева
1006.0 1005.4 +31.3
09 13.09 СЗ 5 6000 м пыль ясно +38.0 +25.7 50 +53 +63 опасность
перегрева
1003.9 1003.4
12 13.09 СЗ 6 10 км ясно +37.4 +26.2 53 +53 +56 опасность
перегрева
1002.4 1001.9
15 13.09 С 5 10 км ясно +34.4 +27.8 69 +55 +55 опасность
перегрева
1003.0 1002.5
18 13.09 С 2 10 км ясно +34.2 +28.1 71 +55 +55 опасность
перегрева
1004.2 1003.6 +39.2
21 13.09 ЮЗ 2 8000 м мгла ясно +33.3 +27.9 73 +53 +53 опасность
перегрева
1003.4 1002.8
00 14.09 нст 1 7000 м мгла 1/1 450 м
[Sc]
+32.6 +28.6 80 +55 +55 опасность
перегрева
1003.1 1002.5
03 14.09 ЮВ 3 4000 м мгла 5/1 450 м
[Sc Ci fib]
+31.5 +27.7 80 +51 +51 опасность
перегрева
1004.9 1004.3
06 14.09 Ю 2 8000 м пыль ясно +34.6 +28.0 69 +56 +68 опасность
перегрева
1006.3 1005.7 +31.3
09 14.09 З 3 10 км ясно +39.4 +23.7 41 +50 +65 опасность
перегрева
1004.3 1003.8
12 14.09 СЗ 6 10 км ясно +38.0 +23.6 44 +49 +51 опасность
перегрева
1003.0 1002.5
15 14.09 С 4 10 км ясно +35.0 +26.8 63 +53 +53 опасность
перегрева
1003.4 1002.9
18 14.09 СВ 3 10 км ясно +34.4 +27.0 65 +52 +52 опасность
перегрева
1004.8 1004.2 +40.9
21 14.09 В 3 10 км ясно +32.8 +28.8 80 +56 +56 опасность
перегрева
1004.2 1003.6
00 15.09 В 2 8000 м мгла 3/3 450 м
[St]
+31.4 +28.8 86 +54 +54 опасность
перегрева
1004.2 1003.6
03 15.09 ЮВ 3 700 м туман на расстоянии 8/8 240 м
[St]
+30.3 +28.7 91 +52 +52 опасность
перегрева
1005.9 1005.3
06 15.09 ЮЗ 4 10 км ясно +35.4 +23.0 49 +45 +54 опасность
перегрева
1007.1 1006.6 +29.8
09 15.09 С 3 10 км ясно +39.2 +23.5 41 +49 +64 опасность
перегрева
1005.4 1004.9

 

Местоположение метеостанции Дубай (ОАЭ): широта 25.25 долгота 55.33 высота над уровнем моря 5 м.

В архиве по умолчанию представлена погода в Дубае за последнюю неделю. Архивные данные за месяц целиком и за предыдущие месяцы, начиная с января 2011 года, Вы можете получить, выбрав интересующий диапазон дат из раскрывающегося списка и нажав кнопку "Ввод!".


*Определитесь, кто Вы:
робот инопланетянин человек

Внимание! Время в таблицах - всемирное. Для получения местного времени необходимо прибавить поправку, которая равна 4 ч.

Смотрите также архив погоды в соседних городах и на ближайших метеорологических станциях:

Погода в Шардже (ОАЭ) (21 км)
Погода в Аль-Мактум аэропорту (ОАЭ) (43 км)
Погода в Рай-эль-Хайма аэропорту (ОАЭ) (73 км)
Погода на Острове Абу-Муса (Иран) (82 км)
Погода в Дибе (Оман) (101 км)
Погода в Фуджейре (ОАЭ) (102 км)
Погода на Острове Сирри (Иран) (107 км)
Погода в Эль-Айне (ОАЭ) (112 км)
Погода в Абу-Даби (ОАЭ) (114 км)
Погода в Эль-Бурайми (Оман) (122 км)

Пояснения к столбцам:

Ветер - указаны скорость ветра в м/с - средняя за 10 мин, порывы в срок и между сроками (в фигурных скобках) и направление, откуда дует ветер: С - северный, СВ - северо-восточный, В - восточный, ЮВ - юго-восточный, Ю - южный, ЮЗ - юго-западный, З - западный, СЗ - северо-западный.
Видимость - горизонтальная дальность видимости в метрах или километрах. При видимости от 1 до 10 км при отсутствии осадков обычно наблюдается дымка, при ухудшении видимости до 1 км и менее - туман. В сухую погоду видимость может ухудшаться дымом, пылью или мглою.
Явления - указаны атмосферные явления, наблюдавшиеся в срок или в последний час перед сроком; фигурными скобками обозначены явления, наблюдавшиеся между сроками (за 1-3 часа до срока); квадратными скобками обозначены град или гололедные отложения с указанием их диаметра в мм.
Облачность - указаны через наклонную черту общая и нижняя облачность в баллах и высота нижней границы облаков в метрах; квадратными скобками обозначены формы облаков: Ci - перистые, Cs - перисто-слоистые, Cc - перисто-кучевые, Ac - высококучевые, As - высокослоистые, Sc - слоисто-кучевые, Ns - слоисто-дождевые, Cu - кучевые, Cb - кучево-дождевые. Подробнее классификацию облаков см. в Атласе облаков (PDF).
T - Температура воздуха - температура, измеренная на высоте 2 м над землей.
Td - Температура точки росы - температура, при понижении до которой содержащийся в воздухе водяной пар достигнет насыщения.
f - Относительная влажность воздуха - влажноcть воздуха, измеренная на высоте 2 м над землей.
Te - Эффективная температура - температура, которую ощущает одетый по сезону человек в тени. Характеристика душности погоды. При расчете учитывается влияние влажности воздуха и скорости ветра на теплоощущения человека.
Tes - Эффективная температура на солнце - температура, которую ощущает человек, с поправкой на солнечный нагрев. Характеристика знойности погоды. Зависит от высоты солнца над горизонтом, облачности и скорости ветра. Ночью, в пасмурную погоду, а также при ветре 12 м/с и более поправка равна нулю.
P - Атмосферное давление - приведенное к уровню моря атмосферное давление.
Po - Атмосферное давление - измеренное на уровне метеостанции атмосферное давление.
Tmin - Минимальная температура - минимум температуры воздуха на высоте 2 м над землей.
Tmax - Максимальная температура - максимум температуры воздуха на высоте 2 м над землей.
R - Количество осадков - Количество выпавших осадков за период времени, мм. При наведении курсора мыши на число - период времени, за который выпало указанное количество осадков.
R24 - Количество осадков - Количество выпавших осадков за 24 часа, мм.
S - Снежный покров - Высота снежного покрова, см. При наведении курсора мыши на число - состояние снежного покрова и степень покрытия местности в баллах.